This demonstration page uses our WeatherBlox Daily Observations layout. Learn more.

Left ArrowRight Arrow

Hourly Observations for May 19, 2016

Temp ( °F °C ) Dew Point ( °F °C ) Humidity (%) Winds ( mph kmh ) Pressure ( in mb ) Visibility ( mi km ) Precip ( " mm )
12:51 am 00:51 Clear 58 14.4 48 8.9 70 70 E 9 15 29.89 1012 10 16 0.00 0.00
1:51 am 01:51 Clear 56 13.3 47 8.3 72 72 E 8 13 29.90 1012 10 16 0.00 0.00
2:51 am 02:51 Clear 56 13.3 46 7.8 70 70 E 8 13 29.88 1012 10 16 0.00 0.00
3:51 am 03:51 Clear 52 11.1 47 8.3 83 83 NW 7 11 29.89 1012 10 16 0.00 0.00
4:51 am 04:51 Clear 50 10 47 8.3 89 89 Calm 29.89 1012 10 16 0.00 0.00
5:51 am 05:51 Sunny 52 11.1 48 8.9 86 86 Calm 29.90 1013 10 16 0.00 0.00
6:51 am 06:51 Sunny 58 14.4 47 8.3 67 67 Calm 29.90 1013 10 16 0.00 0.00
7:51 am 07:51 Sunny 64 17.8 47 8.3 54 54 ESE 9 15 29.90 1013 10 16 0.00 0.00
8:51 am 08:51 Sunny 67 19.4 47 8.3 49 49 SE 7 11 29.90 1013 10 16 0.00 0.00
9:51 am 09:51 Sunny 70 21.1 46 7.8 42 42 ESE 7 11 29.88 1012 10 16 0.00 0.00
10:51 am 10:51 Sunny 74 23.3 46 7.8 37 37 Calm 29.85 1011 10 16 0.00 0.00
11:51 am 11:51 Sunny 76 24.4 44 6.7 32 32 W 3 6 29.83 1010 10 16 0.00 0.00
12:51 pm 12:51 Sunny 78 25.6 42 5.6 28 28 SW 5 7 29.80 1009 10 16 0.00 0.00
1:51 pm 13:51 Sunny 80 26.7 41 5 25 25 NNW 3 6 29.78 1008 10 16 0.00 0.00
2:51 pm 14:51 Sunny 82 27.8 41 5 23 23 NNW 6 9 29.74 1007 10 16 0.00 0.00
3:51 pm 15:51 Sunny 82 27.8 40 4.4 22 22 WSW 7 11 29.73 1007 10 16 0.00 0.00
4:51 pm 16:51 Sunny 83 28.3 39 3.9 21 21 WSW 9 15 29.71 1006 10 16 0.00 0.00
5:51 pm 17:51 Sunny 82 27.8 38 3.3 21 21 undefined N/A 29.70 1006 10 16 0.00 0.00
6:51 pm 18:51 Sunny 81 27.2 38 3.3 21 21 W 3 6 29.69 1006 10 16 0.00 0.00
7:51 pm 19:51 Clear 77 25 41 5 28 28 W 5 7 29.70 1006 10 16 0.00 0.00
8:51 pm 20:51 Clear 72 22.2 43 6.1 35 35 NNW 6 9 29.72 1006 10 16 0.00 0.00
9:51 pm 21:51 Clear 71 21.7 42 5.6 35 35 NW 6 9 29.73 1007 10 16 0.00 0.00
10:51 pm 22:51 Clear 66 18.9 42 5.6 42 42 NW 6 9 29.73 1007 10 16 0.00 0.00
11:51 pm 23:51 Clear 66 18.9 41 5 40 40 N 5 7 29.72 1007 10 16 0.00 0.00

Powered by AerisWeather